Location: *
(47.6569°N, 7.4256°E)
Time: 19:01:37
(UTC+00:00)

ATLAS 2AS CENTAUR R/B - Pass Details

Date: 14 December 2019
Orbit: 927 x 1285 km, 63.7° (Epoch: 06 January)

Event Time Altitude Azimuth Distance (km) Brightness Sun altitude
Rises 19:24:33 0° 308° (NW) 4,255 6.5 -36.9°
Reaches altitude 10° 19:27:58 10° 320° (NW) 3,264 5.7 -37.4°
Enters shadow 19:32:37 25° 353° (N) 2,276 4.4 -38.2°
